Find Starlink 30993

NORAD ID: 58489 Int'l Des: 2023-186 Owner: SPXS Country: US Constellation: starlink operational
LEOCIRCULAR

当前视图

正在加载3D地球...

About Starlink 30993

Starlink 30993 (NORAD 58489) is a starlink constellation satellite (v2 mini) launched Dec 3, 2023 by SPXS of US. It operates in LEO, CIRCULAR orbit with a mass of 730.00 kg.

即将过境

Passes for default location (London). Set your location on the main map for personalized predictions.

高度历史

Loading altitude history...

两行轨道根数

1 58489U 23186S 26229.33185619 .00000081 00000-0 12453-4 0 9999
2 58489 43.0003 236.4826 0001052 266.3835 93.6896 15.27575154150456
Epoch: Aug 17, 2026 • Age: 21 hours

当前状态

高度 486.5 km
远地点 / 近地点 N/A
速度 7.63 km/s
星下点 41.44°N, 57.6°W
发射日期 Dec 3, 2023
运行时间 2.7 years
类型 internet

技术详情

分类 Payload
质量 730.00 kg
干质量 700.00 kg
总质量 730.00 kg
长度 0.30 m
直径 4.10 m
跨度 29.00 m
形状 Box + pan
制造商 SPXS
平台类型 Starlink V2M
阶段状态 In Orbit
所有者/国家 SPXS/US

Most Searched